Back to catalog

STARLINK-37414

AliveCommunicationsVLEO
NORAD 69176·PAYLOAD·🇺🇸 United States

Launched May 21, 2026 from Cape Canaveral Space Force Station

Loading…

Next Passes (next 24 hours)

TLE

FreshSource: CelesTrak SupGP

Epoch: Sep 14, 2026, 23:29 UTC

1 69176C 26111AE  26257.97895833  .00052752  00000+0  15588-2 0  2570
2 69176  53.1565  91.2738 0001342  91.9761 305.8869 15.34359430    16

Track STARLINK-37414 in real time with AllMySat

Download on the App Store